Location: Frankfurt am Main
(50.1109°N, 8.6821°E)
Time: 06:53:55
(UTC+01:00)

BEESAT 3 - Visible Passes

Search period start: 28 January 2022 00:00
Search period end: 07 February 2022 00:00
Orbit: 472 x 512 km, 64.9° (Epoch: 27 January)

Date Brightness Start Highest point End Pass type
(mag) Time Alt. Az. Time Alt. Az. Time Alt. Az.
28 Jan ? 05:06:00 19° NE 05:06:00 19° NE 05:07:14 10° NE visible
28 Jan ? 06:40:30 17° NW 06:41:08 17° NNW 06:43:48 10° NNE visible
29 Jan ? 04:43:32 13° NE 04:43:32 13° NE 04:43:58 10° NE visible
29 Jan ? 06:18:02 19° NNW 06:18:02 19° NNW 06:20:35 10° NNE visible
30 Jan ? 05:55:30 18° N 05:55:30 18° N 05:57:21 10° NNE visible
31 Jan ? 05:32:54 16° N 05:32:54 16° N 05:34:06 10° NNE visible
01 Feb ? 05:10:15 13° NNE 05:10:15 13° NNE 05:10:49 10° NNE visible
01 Feb ? 06:45:37 10° NNW 06:46:07 10° N 06:46:37 10° N visible
02 Feb ? 06:22:03 10° NNW 06:22:40 11° NNW 06:23:30 10° N visible
03 Feb ? 05:59:20 11° NNW 05:59:20 11° NNW 06:00:18 10° N visible
04 Feb ? 05:36:35 11° N 05:36:35 11° N 05:37:04 10° N visible
